Change the Weather History Date:

Sunday, March 17, 2013

  Actual Average Record
Temperature  
Mean Temperature 32 °F 42 °F  
Max Temperature 38 °F 51 °F 86 °F (1945)
Min Temperature 26 °F 32 °F 11 °F (1916)
Degree Days  
Heating Degree Days 33 23  
Month to date heating degree days 435 437  
Since 1 July heating degree days 4036 4251  
Cooling Degree Days 0 0  
Month to date cooling degree days 0 0  
Year to date cooling degree days 0 0  
Moisture  
Dew Point 22 °F    
Average Humidity 66    
Maximum Humidity 92    
Minimum Humidity 40    
Precipitation  
Precipitation 0.00 in 0.15 in 0.82 in (1911)
Month to date precipitation 1.27 2.19  
Year to date precipitation 5.89 7.66  
Sea Level Pressure  
Sea Level Pressure 30.11 in    
Wind  
Wind Speed 7 mph (North)    
Max Wind Speed 14 mph    
Max Gust Speed 20 mph    
Visibility 9 miles    
Events      
T = Trace of Precipitation, MM = Missing Value Source: NWS Daily Summary

Daily Weather History Graph

Daily Weather History Graph

Search for Another Location

Airport or City:

Trip Planner

Search our weather history database for the weather conditions in past years. The results will help you decide how hot, cold, wet, or windy it might be!

Date:

Astronomy

Mar. 17, 2013 Rise Set
Actual Time 7:07 AM EDT 7:08 PM EDT
Civil Twilight 6:40 AM EDT 7:35 PM EDT
Nautical Twilight 6:08 AM EDT 8:07 PM EDT
Astronomical Twilight 5:36 AM EDT 8:39 PM EDT
Moon 10:17 AM EDT (3/17) 12:14 AM EDT (3/17)
Length of Visible Light 12h 55m
Length of Day
12h 01m
Waxing Crescent, 31% of the Moon is Illuminated
Mar 17
Waxing Crescent
Mar 19
First Quarter
Mar 27
Full
Apr 3
Last Quarter
Apr 10
New

Hourly Weather History & Observations

Time (EDT) Temp. Windchill Dew Point Humidity Pressure Visibility Wind Dir Wind Speed Gust Speed Precip Events Conditions
12:53 AM 33.1 °F 30.0 °F 30.9 °F 92% 29.92 in 5.0 mi NNW 3.5 mph - 0.02 in   Overcast
1:50 AM 32.0 °F 27.5 °F 30.2 °F 93% 29.92 in 7.0 mi NNW 4.6 mph - 0.01 in   Scattered Clouds
1:53 AM 32.0 °F 27.5 °F 30.0 °F 92% 29.91 in 7.0 mi NNW 4.6 mph - 0.01 in   Partly Cloudy
2:53 AM 30.9 °F 25.2 °F 28.0 °F 89% 29.93 in 7.0 mi NNW 5.8 mph - N/A   Clear
3:53 AM 30.0 °F 24.1 °F 27.0 °F 88% 29.95 in 8.0 mi NNW 5.8 mph - N/A   Clear
4:53 AM 30.0 °F 24.1 °F 27.0 °F 88% 29.97 in 9.0 mi North 5.8 mph - N/A   Clear
5:53 AM 28.0 °F 24.2 °F 26.1 °F 92% 29.99 in 8.0 mi NNW 3.5 mph - N/A   Clear
6:53 AM 27.0 °F 23.0 °F 25.0 °F 92% 30.04 in 8.0 mi WNW 3.5 mph - N/A   Clear
7:22 AM 26.6 °F - 26.6 °F 100% 30.07 in 6.0 mi Calm Calm - N/A   Mostly Cloudy
7:53 AM 30.0 °F 24.1 °F 25.0 °F 82% 30.07 in 10.0 mi North 5.8 mph - N/A   Overcast
8:53 AM 30.9 °F 22.8 °F 21.9 °F 69% 30.13 in 10.0 mi North 9.2 mph - N/A   Mostly Cloudy
9:00 AM 30.2 °F 21.3 °F 21.2 °F 69% 30.13 in 10.0 mi North 10.4 mph - N/A   Clear
9:53 AM 30.9 °F 21.7 °F 19.9 °F 64% 30.14 in 10.0 mi North 11.5 mph - 0.01 in   Clear
10:53 AM 32.0 °F 24.8 °F 19.0 °F 59% 30.13 in 10.0 mi North 8.1 mph - 0.03 in   Clear
11:53 AM 33.1 °F 26.9 °F 17.1 °F 52% 30.14 in 10.0 mi North 6.9 mph - 0.01 in   Clear
12:53 PM 34.0 °F 26.0 °F 17.1 °F 50% 30.16 in 10.0 mi NNW 10.4 mph - N/A   Partly Cloudy
1:53 PM 35.1 °F 28.6 °F 18.0 °F 50% 30.15 in 10.0 mi North 8.1 mph - N/A   Clear
2:53 PM 37.0 °F 29.8 °F 19.0 °F 48% 30.14 in 10.0 mi NNW 10.4 mph - N/A   Scattered Clouds
3:53 PM 37.9 °F 30.5 °F 19.9 °F 48% 30.14 in 10.0 mi North 11.5 mph 18.4 mph N/A   Clear
4:53 PM 37.0 °F 30.4 °F 17.1 °F 44% 30.15 in 10.0 mi North 9.2 mph - N/A   Clear
5:53 PM 37.0 °F 31.0 °F 16.0 °F 42% 30.17 in 10.0 mi North 8.1 mph - N/A   Clear
6:53 PM 36.0 °F 30.3 °F 17.1 °F 46% 30.20 in 10.0 mi North 6.9 mph - N/A   Clear
7:53 PM 35.1 °F 32.2 °F 16.0 °F 46% 30.23 in 10.0 mi North 3.5 mph - N/A   Clear
8:53 PM 34.0 °F 31.0 °F 17.1 °F 50% 30.25 in 10.0 mi North 3.5 mph - N/A   Clear
9:53 PM 33.1 °F 30.0 °F 17.1 °F 52% 30.27 in 10.0 mi North 3.5 mph - N/A   Clear
10:53 PM 32.0 °F 26.4 °F 18.0 °F 56% 30.27 in 10.0 mi North 5.8 mph - N/A   Clear
11:53 PM 30.9 °F 27.5 °F 18.0 °F 59% 30.29 in 10.0 mi North 3.5 mph - N/A   Clear